Terug naar catalogus

COSMOS 2386

ActiefNavigatiePO
NORAD 27057·PAYLOAD·🇷🇺 Russia

Gelanceerd Dec 28, 2001 vanaf Plesetsk Cosmodrome

Loading…

Volgende Passages (komende 24 uur)

TLE

VersSource: Space-Track

Epoch: Sep 14, 2026, 03:32 UTC

1 27057U 01058C   26257.14761293  .00000034  00000-0  13513-3 0  9993
2 27057  82.5476 157.2389 0000841  75.1322 284.9862 12.61617464137720

Volg COSMOS 2386 in realtime met AllMySat

Download on the App Store